STARLINK-1868 (47154 NORAD) Tracking and Keplerian Element Data

This shows tracking and keplerian element data for the satellite.

Feedback or suggestion? Click here.




ElementValue
Catalog47154
NameSTARLINK-1868
Epoch Orbit180
Epoch Day99.91667824
Epoch Year2021
RAAN68.6651
Inclination53.0563
Eccentricity0.0001925
Argument of Perigee66.8215
Mean Anonmoly49.1037
Mean Motion15.06387996
Decay Rate0.0001072
L11 47154U 20088AJ 21099.91667824 .00010720 00000-0 73773-3 0 9993
L22 47154 53.0563 68.6651 0001925 66.8215 49.1037 15.06387996 1809

Live tracking and technical data element details for STARLINK-1868 (NORAD 47154). STARLINK-1868 can be tracked NOW for your location showing map with azimuth and elevation plus other details from your city location.

Track the satellite on the map from your city or location and see movement details for azimuth, elevation, latitude, longitude, range, height, and movement on the map or in text.







IsCatalogInMostPopularTable: catalog: 47154, numindb: 49
Update: records affected: 1



GetName: 47154 STARLINK-1868

Hit Count: updated at: Sat, 10 Apr 2021 19:07:12 GMT